Time,TemperatureF,DewpointF,PressureIn,WindDirection,WindDirectionDegrees,WindSpeedMPH,WindSpeedGustMPH,Humidity,HourlyPrecipIn,Conditions,Clouds,dailyrainin,SoftwareType,DateUTC
2013-06-08 00:00:00,58.7,55.2,29.99,NW,320,0.0,0.0,88,0.00,,,0.00,VWS V14.01,2013-06-08 05:00:00,
2013-06-08 00:02:00,58.6,55.1,29.99,NW,320,0.0,0.0,88,0.00,,,0.00,VWS V14.01,2013-06-08 05:02:00,
2013-06-08 00:07:00,58.5,55.0,29.99,NW,321,0.0,0.0,88,0.00,,,0.00,VWS V14.01,2013-06-08 05:07:00,
2013-06-08 00:11:00,58.4,55.2,29.99,NW,320,0.0,0.0,89,0.00,,,0.00,VWS V14.01,2013-06-08 05:11:00,
2013-06-08 00:16:00,58.2,55.0,29.99,NW,320,0.0,0.0,89,0.00,,,0.00,VWS V14.01,2013-06-08 05:16:00,
2013-06-08 00:21:00,58.0,54.8,29.98,NW,321,0.0,0.0,89,0.00,,,0.00,VWS V14.01,2013-06-08 05:21:00,
2013-06-08 00:27:00,57.8,54.9,29.98,NW,320,0.0,0.0,90,0.00,,,0.00,VWS V14.01,2013-06-08 05:27:00,
2013-06-08 00:32:00,57.8,55.2,29.98,NW,320,0.0,0.0,91,0.00,,,0.00,VWS V14.01,2013-06-08 05:32:00,
2013-06-08 00:37:00,57.6,55.0,29.98,NW,320,0.0,0.0,91,0.00,,,0.00,VWS V14.01,2013-06-08 05:37:00,
2013-06-08 00:42:00,57.4,55.1,29.98,NW,320,0.0,0.0,92,0.00,,,0.00,VWS V14.01,2013-06-08 05:42:00,
2013-06-08 00:47:00,57.3,55.0,29.98,NW,320,0.0,0.0,92,0.00,,,0.00,VWS V14.01,2013-06-08 05:47:00,
2013-06-08 00:52:00,57.2,54.9,29.98,NW,320,0.0,0.0,92,0.00,,,0.00,VWS V14.01,2013-06-08 05:52:00,
2013-06-08 00:57:00,57.0,54.7,29.98,NW,320,0.0,0.0,92,0.00,,,0.00,VWS V14.01,2013-06-08 05:57:00,
2013-06-08 01:00:00,58.7,55.2,29.99,NW,320,0.0,0.0,88,0.00,,,0.00,VWS V15.00,2013-06-08 06:00:00,
2013-06-08 01:02:00,57.0,55.0,29.98,NW,320,0.0,0.0,93,0.00,,,0.00,VWS V14.01,2013-06-08 06:02:00,
2013-06-08 01:07:00,56.9,54.9,29.98,NW,320,0.0,0.0,93,0.00,,,0.00,VWS V14.01,2013-06-08 06:07:00,
2013-06-08 01:12:00,56.8,54.8,29.98,NW,320,0.0,0.0,93,0.00,,,0.00,VWS V14.01,2013-06-08 06:12:00,
2013-06-08 01:17:00,56.7,54.7,29.98,NW,320,0.0,0.0,93,0.00,,,0.00,VWS V14.01,2013-06-08 06:17:00,
2013-06-08 01:22:00,56.8,54.8,29.98,NW,320,0.0,0.0,93,0.00,,,0.00,VWS V14.01,2013-06-08 06:22:00,
2013-06-08 01:27:00,56.8,54.8,29.98,NW,320,0.0,0.0,93,0.00,,,0.00,VWS V14.01,2013-06-08 06:27:00,
2013-06-08 01:32:00,56.8,54.8,29.98,NW,321,0.0,0.0,93,0.00,,,0.00,VWS V14.01,2013-06-08 06:32:00,
2013-06-08 01:37:00,56.7,54.7,29.98,NW,320,0.0,0.0,93,0.00,,,0.00,VWS V14.01,2013-06-08 06:37:00,
2013-06-08 01:42:00,56.5,54.5,29.98,NW,320,0.0,0.0,93,0.00,,,0.00,VWS V14.01,2013-06-08 06:42:00,
2013-06-08 01:47:00,56.5,54.5,29.98,NW,320,0.0,0.0,93,0.00,,,0.00,VWS V14.01,2013-06-08 06:47:00,
2013-06-08 01:52:00,56.7,54.7,29.98,NW,320,0.0,0.0,93,0.00,,,0.00,VWS V14.01,2013-06-08 06:52:00,
2013-06-08 01:57:00,56.7,54.7,29.98,NW,321,0.0,0.0,93,0.00,,,0.00,VWS V14.01,2013-06-08 06:57:00,
2013-06-08 02:00:00,56.7,54.7,29.98,NW,321,0.0,0.0,93,0.00,,,0.00,VWS V14.01,2013-06-08 07:00:00,
2013-06-08 02:02:00,56.6,54.6,29.98,NW,320,0.0,0.0,93,0.00,,,0.00,VWS V14.01,2013-06-08 07:02:00,
2013-06-08 02:07:00,56.5,54.5,29.98,NW,320,0.0,0.0,93,0.00,,,0.00,VWS V14.01,2013-06-08 07:07:00,
2013-06-08 02:12:00,56.4,54.4,29.98,NW,321,0.0,0.0,93,0.00,,,0.00,VWS V14.01,2013-06-08 07:12:00,
2013-06-08 02:17:00,56.4,54.4,29.98,NW,320,0.0,0.0,93,0.00,,,0.00,VWS V14.01,2013-06-08 07:17:00,
2013-06-08 02:22:00,56.4,54.4,29.98,NW,320,0.0,0.0,93,0.00,,,0.00,VWS V14.01,2013-06-08 07:22:00,
2013-06-08 02:27:00,56.3,54.3,29.97,NW,320,0.0,0.0,93,0.00,,,0.00,VWS V14.01,2013-06-08 07:27:00,
2013-06-08 02:32:00,56.1,54.1,29.97,NW,320,0.0,0.0,93,0.00,,,0.00,VWS V14.01,2013-06-08 07:32:00,
2013-06-08 02:37:00,55.9,53.9,29.97,NW,321,0.0,0.0,93,0.00,,,0.00,VWS V14.01,2013-06-08 07:37:00,
2013-06-08 02:42:00,56.1,54.7,29.97,NW,320,0.0,0.0,95,0.00,,,0.00,VWS V14.01,2013-06-08 07:42:00,
2013-06-08 02:47:00,56.3,54.6,29.97,NW,320,0.0,0.0,94,0.00,,,0.00,VWS V14.01,2013-06-08 07:47:00,
2013-06-08 02:52:00,56.3,54.6,29.97,NW,321,0.0,0.0,94,0.00,,,0.00,VWS V14.01,2013-06-08 07:52:00,
2013-06-08 02:57:00,56.2,54.5,29.97,NW,320,0.0,0.0,94,0.00,,,0.00,VWS V14.01,2013-06-08 07:57:00,
2013-06-08 03:00:00,56.7,54.7,29.98,NW,321,0.0,0.0,93,0.00,,,0.00,VWS V15.00,2013-06-08 08:00:00,
2013-06-08 03:02:00,55.9,54.2,29.97,NW,320,0.0,0.0,94,0.00,,,0.00,VWS V14.01,2013-06-08 08:02:00,
2013-06-08 03:07:00,55.8,54.4,29.97,NW,320,0.0,0.0,95,0.00,,,0.00,VWS V14.01,2013-06-08 08:07:00,
2013-06-08 03:12:00,55.7,54.3,29.97,NW,320,0.0,0.0,95,0.00,,,0.00,VWS V14.01,2013-06-08 08:12:00,
2013-06-08 03:17:00,55.5,54.1,29.97,NW,320,0.0,0.0,95,0.00,,,0.00,VWS V14.01,2013-06-08 08:17:00,
2013-06-08 03:22:00,55.6,54.5,29.97,NW,321,0.0,0.0,96,0.00,,,0.00,VWS V14.01,2013-06-08 08:22:00,
2013-06-08 03:27:00,55.5,54.4,29.97,NW,320,0.0,0.0,96,0.00,,,0.00,VWS V14.01,2013-06-08 08:27:00,
2013-06-08 03:32:00,55.5,54.7,29.97,NW,321,0.0,0.0,97,0.00,,,0.00,VWS V14.01,2013-06-08 08:32:00,
2013-06-08 03:37:00,55.4,54.6,29.97,NW,321,0.0,0.0,97,0.00,,,0.00,VWS V14.01,2013-06-08 08:37:00,
2013-06-08 03:42:00,55.4,54.6,29.97,NW,320,0.0,0.0,97,0.00,,,0.00,VWS V14.01,2013-06-08 08:42:00,
2013-06-08 03:47:00,55.5,55.0,29.97,NW,320,0.0,0.0,98,0.00,,,0.00,VWS V14.01,2013-06-08 08:47:00,
2013-06-08 03:52:00,55.5,54.7,29.97,NW,321,0.0,0.0,97,0.00,,,0.00,VWS V14.01,2013-06-08 08:52:00,
2013-06-08 03:57:00,55.3,54.5,29.97,NW,320,0.0,0.0,97,0.00,,,0.00,VWS V14.01,2013-06-08 08:57:00,
2013-06-08 04:00:00,55.1,54.3,29.97,NW,320,0.0,0.0,97,0.00,,,0.00,VWS V14.01,2013-06-08 09:00:00,
2013-06-08 04:02:00,55.0,54.2,29.97,NW,320,0.0,0.0,97,0.00,,,0.00,VWS V14.01,2013-06-08 09:02:00,
2013-06-08 04:07:00,54.8,54.0,29.97,NW,321,0.0,0.0,97,0.00,,,0.00,VWS V14.01,2013-06-08 09:07:00,
2013-06-08 04:12:00,54.8,54.2,29.97,NW,320,0.0,0.0,98,0.00,,,0.00,VWS V14.01,2013-06-08 09:12:00,
2013-06-08 04:17:00,54.7,54.2,29.97,NW,320,0.0,0.0,98,0.00,,,0.00,VWS V14.01,2013-06-08 09:17:00,
2013-06-08 04:22:00,54.6,54.0,29.97,NW,321,0.0,0.0,98,0.00,,,0.00,VWS V14.01,2013-06-08 09:22:00,
2013-06-08 04:27:00,54.8,54.2,29.97,NW,321,0.0,0.0,98,0.00,,,0.00,VWS V14.01,2013-06-08 09:27:00,
2013-06-08 04:32:00,55.2,54.9,29.97,SSE,156,0.0,1.0,99,0.00,,,0.00,VWS V14.01,2013-06-08 09:32:00,
2013-06-08 04:37:00,55.2,54.7,29.97,SSE,156,0.0,1.0,98,0.00,,,0.00,VWS V14.01,2013-06-08 09:37:00,
2013-06-08 04:42:00,55.1,54.5,29.98,SSE,156,0.0,1.0,98,0.00,,,0.00,VWS V14.01,2013-06-08 09:42:00,
2013-06-08 04:47:00,55.5,55.0,29.97,South,182,1.5,1.5,98,0.00,,,0.00,VWS V14.01,2013-06-08 09:47:00,
2013-06-08 04:52:00,55.7,55.2,29.98,SSE,153,0.0,1.0,98,0.00,,,0.00,VWS V14.01,2013-06-08 09:52:00,
2013-06-08 04:57:00,55.9,55.3,29.98,SSE,166,0.0,1.0,98,0.00,,,0.00,VWS V14.01,2013-06-08 09:57:00,
2013-06-08 05:00:00,55.1,54.3,29.97,NW,320,0.0,0.0,97,0.00,,,0.00,VWS V15.00,2013-06-08 10:00:00,
2013-06-08 05:02:00,55.9,55.1,29.98,SSE,166,0.0,1.0,97,0.00,,,0.00,VWS V14.01,2013-06-08 10:02:00,
2013-06-08 05:07:00,56.0,55.2,29.98,SSE,166,0.0,1.0,97,0.00,,,0.00,VWS V14.01,2013-06-08 10:07:00,
2013-06-08 05:12:00,55.9,55.1,29.98,SSE,166,0.0,1.0,97,0.00,,,0.00,VWS V14.01,2013-06-08 10:12:00,
2013-06-08 05:17:00,55.8,55.0,29.98,SSE,166,0.0,1.0,97,0.00,,,0.00,VWS V14.01,2013-06-08 10:17:00,
2013-06-08 05:22:00,55.8,55.0,29.98,SSE,166,0.0,1.0,97,0.00,,,0.00,VWS V14.01,2013-06-08 10:22:00,
2013-06-08 05:27:00,55.7,54.9,29.97,ESE,117,0.0,1.0,97,0.00,,,0.00,VWS V14.01,2013-06-08 10:27:00,
2013-06-08 05:32:00,55.7,54.9,29.97,South,172,0.0,1.0,97,0.00,,,0.00,VWS V14.01,2013-06-08 10:32:00,
2013-06-08 05:37:00,55.8,55.0,29.97,SSE,163,1.5,2.0,97,0.00,,,0.00,VWS V14.01,2013-06-08 10:37:00,
2013-06-08 05:42:00,56.0,54.9,29.98,SSE,168,0.0,2.0,96,0.00,,,0.00,VWS V14.01,2013-06-08 10:42:00,
2013-06-08 05:47:00,56.1,55.0,29.98,SSE,149,0.0,2.0,96,0.00,,,0.00,VWS V14.01,2013-06-08 10:47:00,
2013-06-08 05:52:00,56.0,54.9,29.98,SSE,149,0.0,2.0,96,0.00,,,0.00,VWS V14.01,2013-06-08 10:52:00,
2013-06-08 05:57:00,56.0,54.9,29.98,SSE,150,0.0,2.0,96,0.00,,,0.00,VWS V14.01,2013-06-08 10:57:00,
2013-06-08 06:00:00,55.8,54.7,29.98,SSE,150,0.0,2.0,96,0.00,,,0.00,VWS V14.01,2013-06-08 11:00:00,
2013-06-08 06:02:00,55.8,54.7,29.98,SSE,152,0.0,0.0,96,0.00,,,0.00,VWS V14.01,2013-06-08 11:02:00,
2013-06-08 07:00:00,55.8,54.7,29.98,SSE,150,0.0,2.0,96,0.00,,,0.00,VWS V15.00,2013-06-08 12:00:00,
2013-06-08 08:01:00,67.9,59.7,29.99,SE,134,0.0,0.0,75,0.00,,,0.00,VWS V14.01,2013-06-08 13:01:00,
2013-06-08 08:06:00,68.5,60.3,29.99,SE,134,0.0,1.0,75,0.00,,,0.00,VWS V14.01,2013-06-08 13:06:00,
2013-06-08 08:11:00,68.9,59.9,29.99,SE,134,1.5,1.5,73,0.00,,,0.00,VWS V14.01,2013-06-08 13:11:00,
2013-06-08 08:16:00,69.5,60.1,29.99,SE,134,0.0,1.0,72,0.00,,,0.00,VWS V14.01,2013-06-08 13:16:00,
2013-06-08 08:21:00,69.5,60.1,29.99,SE,134,0.0,1.0,72,0.00,,,0.00,VWS V14.01,2013-06-08 13:21:00,
2013-06-08 08:26:00,69.9,59.7,29.99,SSE,162,1.5,2.0,70,0.00,,,0.00,VWS V14.01,2013-06-08 13:26:00,
2013-06-08 08:31:00,70.1,59.1,29.99,SSE,162,1.5,2.0,68,0.00,,,0.00,VWS V14.01,2013-06-08 13:31:00,
2013-06-08 08:36:00,70.3,60.1,29.99,SSE,158,0.0,3.0,70,0.00,,,0.00,VWS V14.01,2013-06-08 13:36:00,
2013-06-08 08:41:00,71.1,60.4,29.99,SSE,158,0.0,3.0,69,0.00,,,0.00,VWS V14.01,2013-06-08 13:41:00,
2013-06-08 08:46:00,71.4,59.5,29.99,South,190,0.0,3.0,66,0.00,,,0.00,VWS V14.01,2013-06-08 13:46:00,
2013-06-08 08:51:00,71.2,59.7,29.99,ESE,113,4.5,4.5,67,0.00,,,0.00,VWS V14.01,2013-06-08 13:51:00,
2013-06-08 08:56:00,71.0,58.7,30.00,SSE,150,4.5,5.0,65,0.00,,,0.00,VWS V14.01,2013-06-08 13:56:00,
2013-06-08 09:01:00,70.8,58.5,30.00,SSE,156,3.0,5.0,65,0.00,,,0.00,VWS V14.01,2013-06-08 14:01:00,
2013-06-08 09:06:00,70.9,58.6,29.99,South,189,4.5,6.0,65,0.00,,,0.00,VWS V14.01,2013-06-08 14:06:00,
2013-06-08 09:11:00,71.2,59.3,30.00,SSE,152,3.0,6.0,66,0.00,,,0.00,VWS V14.01,2013-06-08 14:11:00,
2013-06-08 09:16:00,71.6,59.2,30.00,SSW,194,1.5,6.0,65,0.00,,,0.00,VWS V14.01,2013-06-08 14:16:00,
2013-06-08 09:21:00,71.8,60.3,30.00,SSE,148,3.0,6.0,67,0.00,,,0.00,VWS V14.01,2013-06-08 14:21:00,
2013-06-08 09:26:00,72.3,60.7,30.00,South,184,1.5,6.0,67,0.00,,,0.00,VWS V14.01,2013-06-08 14:26:00,
2013-06-08 09:31:00,72.7,60.7,30.00,South,179,6.0,6.0,66,0.00,,,0.00,VWS V14.01,2013-06-08 14:31:00,
2013-06-08 09:36:00,73.1,60.2,29.99,SE,145,1.5,6.0,64,0.00,,,0.00,VWS V14.01,2013-06-08 14:36:00,
2013-06-08 09:41:00,73.6,60.7,30.00,SSW,203,1.5,6.0,64,0.00,,,0.00,VWS V14.01,2013-06-08 14:41:00,
2013-06-08 09:57:00,73.9,60.5,29.99,South,185,1.5,1.5,63,0.00,,,0.00,VWS V14.01,2013-06-08 14:57:00,
2013-06-08 10:00:00,74.1,60.3,29.99,SW,224,3.0,3.0,62,0.00,,,0.00,VWS V14.01,2013-06-08 15:00:00,
2013-06-08 10:02:00,74.3,60.5,29.99,SSW,208,1.5,4.0,62,0.00,,,0.00,VWS V14.01,2013-06-08 15:02:00,
2013-06-08 10:07:00,74.7,59.9,29.99,SSE,158,3.0,5.0,60,0.00,,,0.00,VWS V14.01,2013-06-08 15:07:00,
2013-06-08 10:12:00,75.1,60.8,29.99,SSE,167,1.5,5.0,61,0.00,,,0.00,VWS V14.01,2013-06-08 15:12:00,
2013-06-08 10:17:00,75.2,59.9,29.98,SSW,208,6.0,6.0,59,0.00,,,0.00,VWS V14.01,2013-06-08 15:17:00,
2013-06-08 10:22:00,75.4,60.1,29.99,SSW,194,1.5,5.0,59,0.00,,,0.00,VWS V14.01,2013-06-08 15:22:00,
2013-06-08 10:27:00,76.2,60.8,29.98,SSE,160,1.5,5.0,59,0.00,,,0.00,VWS V14.01,2013-06-08 15:27:00,
2013-06-08 10:32:00,76.9,59.0,29.98,ESE,122,0.0,5.0,54,0.00,,,0.00,VWS V14.01,2013-06-08 15:32:00,
2013-06-08 10:37:00,77.2,59.3,29.98,SSE,157,3.0,5.0,54,0.00,,,0.00,VWS V14.01,2013-06-08 15:37:00,
2013-06-08 10:42:00,77.4,59.5,29.98,SSE,152,4.5,5.0,54,0.00,,,0.00,VWS V14.01,2013-06-08 15:42:00,
2013-06-08 10:47:00,77.4,57.9,29.98,South,187,0.0,5.0,51,0.00,,,0.00,VWS V14.01,2013-06-08 15:47:00,
2013-06-08 10:52:00,77.5,57.4,29.98,SSE,155,0.0,5.0,50,0.00,,,0.00,VWS V14.01,2013-06-08 15:52:00,
2013-06-08 10:57:00,77.7,58.7,29.99,ESE,113,1.5,5.0,52,0.00,,,0.00,VWS V14.01,2013-06-08 15:57:00,
2013-06-08 11:00:00,74.1,60.3,29.99,SW,224,3.0,3.0,62,0.00,,,0.00,VWS V15.00,2013-06-08 16:00:00,
2013-06-08 11:02:00,77.8,58.2,29.98,SSW,208,0.0,5.0,51,0.00,,,0.00,VWS V14.01,2013-06-08 16:02:00,
2013-06-08 11:07:00,78.0,56.7,29.98,SSE,163,0.0,5.0,48,0.00,,,0.00,VWS V14.01,2013-06-08 16:07:00,
2013-06-08 11:12:00,77.7,58.7,29.98,NNE,23,0.0,5.0,52,0.00,,,0.00,VWS V14.01,2013-06-08 16:12:00,
2013-06-08 11:17:00,78.2,60.2,29.98,SSE,155,0.0,5.0,54,0.00,,,0.00,VWS V14.01,2013-06-08 16:17:00,
2013-06-08 11:22:00,79.2,61.1,29.99,NNE,20,1.5,5.0,54,0.00,,,0.00,VWS V14.01,2013-06-08 16:22:00,
2013-06-08 11:27:00,78.8,57.5,29.99,South,169,0.0,5.0,48,0.00,,,0.00,VWS V14.01,2013-06-08 16:27:00,
2013-06-08 11:32:00,79.0,58.8,29.99,SSW,212,1.5,6.0,50,0.00,,,0.00,VWS V14.01,2013-06-08 16:32:00,
2013-06-08 11:37:00,79.1,58.3,29.99,East,98,1.5,6.0,49,0.00,,,0.00,VWS V14.01,2013-06-08 16:37:00,
2013-06-08 11:42:00,79.4,59.2,29.99,SE,139,0.0,6.0,50,0.00,,,0.00,VWS V14.01,2013-06-08 16:42:00,
2013-06-08 11:47:00,79.0,57.7,29.99,ESE,114,0.0,6.0,48,0.00,,,0.00,VWS V14.01,2013-06-08 16:47:00,
2013-06-08 11:52:00,78.7,58.0,29.99,SE,136,1.5,6.0,49,0.00,,,0.00,VWS V14.01,2013-06-08 16:52:00,
2013-06-08 11:57:00,78.8,58.0,29.99,South,173,1.5,6.0,49,0.00,,,0.00,VWS V14.01,2013-06-08 16:57:00,
2013-06-08 12:00:00,78.8,56.3,29.99,SSE,149,0.0,6.0,46,0.00,,,0.00,VWS V14.01,2013-06-08 17:00:00,
2013-06-08 12:02:00,78.9,58.7,29.99,SE,146,1.5,1.5,50,0.00,,,0.00,VWS V14.01,2013-06-08 17:02:00,
2013-06-08 12:07:00,79.5,59.2,29.98,SSE,148,0.0,1.0,50,0.00,,,0.00,VWS V14.01,2013-06-08 17:07:00,
2013-06-08 12:12:00,79.8,58.4,29.98,NNE,13,1.5,1.5,48,0.00,,,0.00,VWS V14.01,2013-06-08 17:12:00,
2013-06-08 12:17:00,79.3,58.5,29.98,NNW,347,3.0,3.0,49,0.00,,,0.00,VWS V14.01,2013-06-08 17:17:00,
2013-06-08 12:22:00,78.7,58.5,29.98,South,177,1.5,5.0,50,0.00,,,0.00,VWS V14.01,2013-06-08 17:22:00,
2013-06-08 12:27:00,79.5,60.3,29.98,SSE,157,0.0,5.0,52,0.00,,,0.00,VWS V14.01,2013-06-08 17:27:00,
2013-06-08 12:32:00,80.3,59.4,29.98,SSE,148,1.5,5.0,49,0.00,,,0.00,VWS V14.01,2013-06-08 17:32:00,
2013-06-08 12:37:00,80.7,60.3,29.98,SSW,205,0.0,5.0,50,0.00,,,0.00,VWS V14.01,2013-06-08 17:37:00,
2013-06-08 12:42:00,80.7,59.8,29.98,SW,232,3.0,5.0,49,0.00,,,0.00,VWS V14.01,2013-06-08 17:42:00,
2013-06-08 12:47:00,80.7,60.9,29.98,SSW,212,0.0,5.0,51,0.00,,,0.00,VWS V14.01,2013-06-08 17:47:00,
2013-06-08 12:52:00,80.8,59.9,29.98,SSW,204,4.5,5.0,49,0.00,,,0.00,VWS V14.01,2013-06-08 17:52:00,
2013-06-08 12:57:00,80.7,60.3,29.98,SSE,165,0.0,5.0,50,0.00,,,0.00,VWS V14.01,2013-06-08 17:57:00,
2013-06-08 13:00:00,78.8,56.3,29.99,SSE,149,0.0,6.0,46,0.00,,,0.00,VWS V15.00,2013-06-08 18:00:00,
2013-06-08 13:02:00,80.5,59.6,29.97,SE,128,3.0,5.0,49,0.00,,,0.00,VWS V14.01,2013-06-08 18:02:00,
2013-06-08 13:07:00,80.6,60.3,29.98,SSW,208,0.0,5.0,50,0.00,,,0.00,VWS V14.01,2013-06-08 18:07:00,
2013-06-08 13:12:00,80.6,59.7,29.97,SSE,156,3.0,5.0,49,0.00,,,0.00,VWS V14.01,2013-06-08 18:12:00,
2013-06-08 13:17:00,80.7,60.3,29.97,SSW,205,1.5,5.0,50,0.00,,,0.00,VWS V14.01,2013-06-08 18:17:00,
2013-06-08 13:22:00,80.6,60.3,29.97,East,91,1.5,6.0,50,0.00,,,0.00,VWS V14.01,2013-06-08 18:22:00,
2013-06-08 13:27:00,80.6,60.8,29.97,SE,128,0.0,6.0,51,0.00,,,0.00,VWS V14.01,2013-06-08 18:27:00,
2013-06-08 13:32:00,80.8,60.4,29.96,West,279,0.0,6.0,50,0.00,,,0.00,VWS V14.01,2013-06-08 18:32:00,
2013-06-08 13:37:00,81.0,61.7,29.96,NNW,338,0.0,6.0,52,0.00,,,0.00,VWS V14.01,2013-06-08 18:37:00,
2013-06-08 13:42:00,80.9,60.0,29.96,SSE,159,3.0,6.0,49,0.00,,,0.00,VWS V14.01,2013-06-08 18:42:00,
2013-06-08 13:47:00,81.1,60.2,29.96,SSE,167,7.5,7.5,49,0.00,,,0.00,VWS V14.01,2013-06-08 18:47:00,
2013-06-08 13:52:00,81.3,62.0,29.96,WNW,290,0.0,6.0,52,0.00,,,0.00,VWS V14.01,2013-06-08 18:52:00,
2013-06-08 13:57:00,81.3,60.9,29.96,East,86,0.0,6.0,50,0.00,,,0.00,VWS V14.01,2013-06-08 18:57:00,
2013-06-08 14:00:00,81.5,61.7,29.96,South,174,1.5,6.0,51,0.00,,,0.00,VWS V14.01,2013-06-08 19:00:00,
2013-06-08 14:02:00,81.6,61.2,29.96,SSE,167,3.0,5.0,50,0.00,,,0.00,VWS V14.01,2013-06-08 19:02:00,
2013-06-08 14:07:00,82.1,61.6,29.95,South,174,3.0,5.0,50,0.00,,,0.00,VWS V14.01,2013-06-08 19:07:00,
2013-06-08 14:14:00,81.7,61.3,29.95,SSW,195,0.0,0.0,50,0.00,,,0.00,VWS V14.01,2013-06-08 19:14:00,
2013-06-08 14:19:00,81.5,61.7,29.95,SSE,148,1.5,2.0,51,0.00,,,0.00,VWS V14.01,2013-06-08 19:19:00,
2013-06-08 14:24:00,81.3,60.9,29.95,SSW,201,1.5,5.0,50,0.00,,,0.00,VWS V14.01,2013-06-08 19:24:00,
2013-06-08 14:29:00,81.1,61.3,29.94,ENE,69,0.0,5.0,51,0.00,,,0.00,VWS V14.01,2013-06-08 19:29:00,
2013-06-08 14:34:00,80.9,60.5,29.94,South,191,0.0,5.0,50,0.00,,,0.00,VWS V14.01,2013-06-08 19:34:00,
2013-06-08 14:39:00,80.9,61.6,29.94,SSW,198,0.0,5.0,52,0.00,,,0.00,VWS V14.01,2013-06-08 19:39:00,
2013-06-08 14:44:00,80.9,61.1,29.94,SSW,197,0.0,5.0,51,0.00,,,0.00,VWS V14.01,2013-06-08 19:44:00,
2013-06-08 14:49:00,80.6,60.8,29.94,SSW,197,0.0,5.0,51,0.00,,,0.00,VWS V14.01,2013-06-08 19:49:00,
2013-06-08 14:54:00,80.7,62.0,29.94,WSW,246,0.0,6.0,53,0.00,,,0.00,VWS V14.01,2013-06-08 19:54:00,
2013-06-08 14:59:00,81.0,62.3,29.94,SSW,210,1.5,6.0,53,0.00,,,0.00,VWS V14.01,2013-06-08 19:59:00,
2013-06-08 15:00:00,81.5,61.7,29.96,South,174,1.5,6.0,51,0.00,,,0.00,VWS V15.00,2013-06-08 20:00:00,
2013-06-08 15:04:00,81.3,60.3,29.94,SSE,160,1.5,6.0,49,0.00,,,0.00,VWS V14.01,2013-06-08 20:04:00,
2013-06-08 15:09:00,81.6,60.6,29.93,SSE,159,0.0,6.0,49,0.00,,,0.00,VWS V14.01,2013-06-08 20:09:00,
2013-06-08 15:14:00,81.9,62.0,29.93,NNE,30,3.0,6.0,51,0.00,,,0.00,VWS V14.01,2013-06-08 20:14:00,
2013-06-08 15:19:00,82.3,61.8,29.93,East,94,0.0,6.0,50,0.00,,,0.00,VWS V14.01,2013-06-08 20:19:00,
2013-06-08 15:24:00,82.6,61.5,29.93,SSE,166,1.5,6.0,49,0.00,,,0.00,VWS V14.01,2013-06-08 20:24:00,
2013-06-08 15:29:00,82.7,61.6,29.92,East,101,0.0,6.0,49,0.00,,,0.00,VWS V14.01,2013-06-08 20:29:00,
2013-06-08 15:34:00,82.3,60.1,29.92,East,89,4.5,6.0,47,0.00,,,0.00,VWS V14.01,2013-06-08 20:34:00,
2013-06-08 15:39:00,82.0,61.5,29.92,South,181,1.5,6.0,50,0.00,,,0.00,VWS V14.01,2013-06-08 20:39:00,
2013-06-08 15:44:00,82.2,59.4,29.92,NE,40,1.5,6.0,46,0.00,,,0.00,VWS V14.01,2013-06-08 20:44:00,
2013-06-08 15:49:00,81.9,59.7,29.92,SW,217,1.5,6.0,47,0.00,,,0.00,VWS V14.01,2013-06-08 20:49:00,
2013-06-08 15:54:00,81.9,60.3,29.92,SSE,158,3.0,6.0,48,0.00,,,0.00,VWS V14.01,2013-06-08 20:54:00,
2013-06-08 15:59:00,82.1,60.5,29.92,ESE,117,7.5,10.0,48,0.00,,,0.00,VWS V14.01,2013-06-08 20:59:00,
2013-06-08 16:00:00,82.1,60.5,29.92,SSW,198,3.0,10.0,48,0.00,,,0.00,VWS V14.01,2013-06-08 21:00:00,
2013-06-08 16:04:00,82.0,60.4,29.92,South,191,3.0,9.0,48,0.00,,,0.00,VWS V14.01,2013-06-08 21:04:00,
2013-06-08 16:09:00,82.2,60.6,29.92,SSW,195,1.5,9.0,48,0.00,,,0.00,VWS V14.01,2013-06-08 21:09:00,
2013-06-08 16:14:00,82.5,61.4,29.92,SW,214,3.0,9.0,49,0.00,,,0.00,VWS V14.01,2013-06-08 21:14:00,
2013-06-08 16:19:00,82.3,61.2,29.92,SSE,165,3.0,9.0,49,0.00,,,0.00,VWS V14.01,2013-06-08 21:19:00,
2013-06-08 16:24:00,82.3,60.1,29.92,SSE,159,3.0,9.0,47,0.00,,,0.00,VWS V14.01,2013-06-08 21:24:00,
2013-06-08 16:29:00,82.4,59.6,29.92,SSE,165,4.5,9.0,46,0.00,,,0.00,VWS V14.01,2013-06-08 21:29:00,
2013-06-08 16:34:00,81.9,59.7,29.92,ESE,113,1.5,9.0,47,0.00,,,0.00,VWS V14.01,2013-06-08 21:34:00,
2013-06-08 16:39:00,82.1,61.1,29.92,ENE,77,6.0,9.0,49,0.00,,,0.00,VWS V14.01,2013-06-08 21:39:00,
2013-06-08 16:44:00,82.0,59.8,29.92,SSE,162,3.0,9.0,47,0.00,,,0.00,VWS V14.01,2013-06-08 21:44:00,
2013-06-08 16:49:00,81.8,60.2,29.92,SE,134,3.0,9.0,48,0.00,,,0.00,VWS V14.01,2013-06-08 21:49:00,
2013-06-08 16:54:00,81.2,59.1,29.92,SSE,167,3.0,9.0,47,0.00,,,0.00,VWS V14.01,2013-06-08 21:54:00,
2013-06-08 16:59:00,80.9,59.4,29.91,East,94,3.0,9.0,48,0.00,,,0.00,VWS V14.01,2013-06-08 21:59:00,
2013-06-08 17:00:00,82.1,60.5,29.92,SSW,198,3.0,10.0,48,0.00,,,0.00,VWS V15.00,2013-06-08 22:00:00,
2013-06-08 17:04:00,81.1,59.0,29.91,South,186,6.0,9.0,47,0.00,,,0.00,VWS V14.01,2013-06-08 22:04:00,
2013-06-08 17:09:00,80.9,60.0,29.91,SW,214,7.5,9.0,49,0.00,,,0.00,VWS V14.01,2013-06-08 22:09:00,
2013-06-08 17:14:00,81.0,60.6,29.91,SSE,160,3.0,9.0,50,0.00,,,0.00,VWS V14.01,2013-06-08 22:14:00,
2013-06-08 17:19:00,81.0,60.6,29.91,SW,219,1.5,9.0,50,0.00,,,0.00,VWS V14.01,2013-06-08 22:19:00,
2013-06-08 17:24:00,80.9,60.5,29.91,SSW,193,3.0,9.0,50,0.00,,,0.00,VWS V14.01,2013-06-08 22:24:00,
2013-06-08 17:29:00,80.9,60.5,29.91,SSE,163,7.5,10.0,50,0.00,,,0.00,VWS V14.01,2013-06-08 22:29:00,
2013-06-08 17:34:00,80.6,60.3,29.91,SSW,200,6.0,10.0,50,0.00,,,0.00,VWS V14.01,2013-06-08 22:34:00,
2013-06-08 17:39:00,80.4,60.1,29.91,South,179,3.0,10.0,50,0.00,,,0.00,VWS V14.01,2013-06-08 22:39:00,
2013-06-08 17:44:00,80.3,60.5,29.91,SSW,210,1.5,10.0,51,0.00,,,0.00,VWS V14.01,2013-06-08 22:44:00,
2013-06-08 17:49:00,80.4,61.2,29.91,South,184,3.0,10.0,52,0.00,,,0.00,VWS V14.01,2013-06-08 22:49:00,
2013-06-08 17:53:00,80.5,60.7,29.91,South,179,6.0,10.0,51,0.00,,,0.00,VWS V14.01,2013-06-08 22:53:00,
2013-06-08 17:58:00,80.4,60.6,29.91,South,174,4.5,10.0,51,0.00,,,0.00,VWS V14.01,2013-06-08 22:58:00,
2013-06-08 18:00:00,80.4,61.2,29.91,SSE,162,9.0,10.0,52,0.00,,,0.00,VWS V14.01,2013-06-08 23:00:00,
2013-06-08 18:03:00,80.3,61.6,29.90,SE,145,1.5,9.0,53,0.00,,,0.00,VWS V14.01,2013-06-08 23:03:00,
2013-06-08 18:08:00,80.2,60.5,29.90,SSW,205,4.5,9.0,51,0.00,,,0.00,VWS V14.01,2013-06-08 23:08:00,
2013-06-08 18:13:00,79.8,61.2,29.90,South,185,12.0,12.0,53,0.00,,,0.00,VWS V14.01,2013-06-08 23:13:00,
2013-06-08 18:18:00,79.4,60.8,29.90,SSW,197,6.0,9.0,53,0.00,,,0.00,VWS V14.01,2013-06-08 23:18:00,
2013-06-08 18:23:00,79.0,59.9,29.90,SSE,152,4.5,9.0,52,0.00,,,0.00,VWS V14.01,2013-06-08 23:23:00,
2013-06-08 18:28:00,78.6,59.5,29.90,SSE,158,7.5,9.0,52,0.00,,,0.00,VWS V14.01,2013-06-08 23:28:00,
2013-06-08 18:33:00,78.5,59.4,29.90,SSW,197,6.0,9.0,52,0.00,,,0.00,VWS V14.01,2013-06-08 23:33:00,
2013-06-08 18:38:00,78.4,59.9,29.90,South,172,1.5,9.0,53,0.00,,,0.00,VWS V14.01,2013-06-08 23:38:00,
2013-06-08 18:43:00,78.3,59.2,29.91,East,98,3.0,9.0,52,0.00,,,0.00,VWS V14.01,2013-06-08 23:43:00,
2013-06-08 18:48:00,78.3,58.7,29.91,SSE,159,4.5,10.0,51,0.00,,,0.00,VWS V14.01,2013-06-08 23:48:00,
2013-06-08 18:53:00,78.1,58.5,29.91,SW,236,4.5,10.0,51,0.00,,,0.00,VWS V14.01,2013-06-08 23:53:00,
2013-06-08 18:58:00,77.9,58.3,29.91,SE,138,3.0,11.0,51,0.00,,,0.00,VWS V14.01,2013-06-08 23:58:00,
2013-06-08 19:00:00,80.4,61.2,29.91,SSE,162,9.0,10.0,52,0.00,,,0.00,VWS V15.00,2013-06-09 00:00:00,
2013-06-08 19:03:00,77.5,58.5,29.92,SSW,210,0.0,11.0,52,0.00,,,0.00,VWS V14.01,2013-06-09 00:03:00,
2013-06-08 19:08:00,77.4,59.0,29.91,SSE,167,3.0,11.0,53,0.00,,,0.00,VWS V14.01,2013-06-09 00:08:00,
2013-06-08 19:13:00,77.2,59.3,29.91,South,186,3.0,11.0,54,0.00,,,0.00,VWS V14.01,2013-06-09 00:13:00,
2013-06-08 19:18:00,77.1,58.7,29.91,SSE,162,6.0,11.0,53,0.00,,,0.00,VWS V14.01,2013-06-09 00:18:00,
2013-06-08 19:23:00,76.9,58.5,29.91,SSE,162,1.5,11.0,53,0.00,,,0.00,VWS V14.01,2013-06-09 00:23:00,
2013-06-08 19:28:00,76.9,58.5,29.91,SSW,193,1.5,11.0,53,0.00,,,0.00,VWS V14.01,2013-06-09 00:28:00,
2013-06-08 19:33:00,76.8,58.4,29.90,ESE,120,6.0,11.0,53,0.00,,,0.00,VWS V14.01,2013-06-09 00:33:00,
2013-06-08 19:38:00,76.7,58.3,29.90,SSE,160,1.5,11.0,53,0.00,,,0.00,VWS V14.01,2013-06-09 00:38:00,
2013-06-08 19:43:00,76.6,58.7,29.89,South,169,4.5,11.0,54,0.00,,,0.00,VWS V14.01,2013-06-09 00:43:00,
2013-06-08 19:48:00,76.4,58.5,29.90,SSW,202,4.5,11.0,54,0.00,,,0.00,VWS V14.01,2013-06-09 00:48:00,
2013-06-08 19:53:00,76.2,58.9,29.89,SSW,212,4.5,11.0,55,0.00,,,0.00,VWS V14.01,2013-06-09 00:53:00,
2013-06-08 19:58:00,76.0,59.2,29.89,SSE,148,0.0,11.0,56,0.00,,,0.00,VWS V14.01,2013-06-09 00:58:00,
2013-06-08 20:00:00,76.0,59.2,29.90,SSW,193,1.5,11.0,56,0.00,,,0.00,VWS V14.01,2013-06-09 01:00:00,
2013-06-08 20:03:00,75.8,59.0,29.90,SSE,167,1.5,3.0,56,0.00,,,0.00,VWS V14.01,2013-06-09 01:03:00,
2013-06-08 20:08:00,75.6,59.8,29.90,SSW,197,0.0,3.0,58,0.00,,,0.00,VWS V14.01,2013-06-09 01:08:00,
2013-06-08 20:13:00,75.2,59.4,29.90,SSE,155,0.0,4.0,58,0.00,,,0.00,VWS V14.01,2013-06-09 01:13:00,
2013-06-08 20:18:00,74.9,59.6,29.90,SSE,166,0.0,4.0,59,0.00,,,0.00,VWS V14.01,2013-06-09 01:18:00,
2013-06-08 20:23:00,74.8,60.0,29.90,South,172,0.0,4.0,60,0.00,,,0.00,VWS V14.01,2013-06-09 01:23:00,
2013-06-08 20:28:00,74.4,59.6,29.90,SE,145,0.0,4.0,60,0.00,,,0.00,VWS V14.01,2013-06-09 01:28:00,
2013-06-08 20:33:00,74.1,59.8,29.90,ESE,118,3.0,4.0,61,0.00,,,0.00,VWS V14.01,2013-06-09 01:33:00,
2013-06-08 20:38:00,73.9,60.1,29.90,East,90,0.0,4.0,62,0.00,,,0.00,VWS V14.01,2013-06-09 01:38:00,
2013-06-08 20:43:00,73.6,59.8,29.91,SE,143,0.0,4.0,62,0.00,,,0.00,VWS V14.01,2013-06-09 01:43:00,
2013-06-08 20:48:00,73.4,59.6,29.91,SSE,166,0.0,4.0,62,0.00,,,0.00,VWS V14.01,2013-06-09 01:48:00,
2013-06-08 20:53:00,73.1,59.8,29.91,SSE,147,0.0,4.0,63,0.00,,,0.00,VWS V14.01,2013-06-09 01:53:00,
2013-06-08 20:58:00,72.9,60.0,29.91,SSW,200,0.0,4.0,64,0.00,,,0.00,VWS V14.01,2013-06-09 01:58:00,
2013-06-08 21:00:00,76.0,59.2,29.90,SSW,193,1.5,11.0,56,0.00,,,0.00,VWS V15.00,2013-06-09 02:00:00,
2013-06-08 21:03:00,72.7,59.8,29.92,ESE,121,0.0,4.0,64,0.00,,,0.00,VWS V14.01,2013-06-09 02:03:00,
2013-06-08 21:08:00,72.7,59.8,29.92,SE,143,0.0,4.0,64,0.00,,,0.00,VWS V14.01,2013-06-09 02:08:00,
2013-06-08 21:13:00,72.5,60.1,29.92,SSE,155,0.0,4.0,65,0.00,,,0.00,VWS V14.01,2013-06-09 02:13:00,
2013-06-08 21:18:00,72.4,60.0,29.92,SE,146,0.0,4.0,65,0.00,,,0.00,VWS V14.01,2013-06-09 02:18:00,
2013-06-08 21:23:00,72.2,60.2,29.93,SE,146,0.0,4.0,66,0.00,,,0.00,VWS V14.01,2013-06-09 02:23:00,
2013-06-08 21:28:00,71.9,59.9,29.93,SE,146,0.0,4.0,66,0.00,,,0.00,VWS V14.01,2013-06-09 02:28:00,
2013-06-08 21:33:00,71.7,60.2,29.93,SSE,156,0.0,4.0,67,0.00,,,0.00,VWS V14.01,2013-06-09 02:33:00,
2013-06-08 21:38:00,71.7,60.2,29.94,South,181,0.0,4.0,67,0.00,,,0.00,VWS V14.01,2013-06-09 02:38:00,
2013-06-08 21:43:00,71.6,60.1,29.94,South,190,0.0,4.0,67,0.00,,,0.00,VWS V14.01,2013-06-09 02:43:00,
2013-06-08 21:48:00,71.5,60.4,29.94,South,190,0.0,4.0,68,0.00,,,0.00,VWS V14.01,2013-06-09 02:48:00,
2013-06-08 21:53:00,71.4,60.3,29.94,SSE,155,1.5,4.0,68,0.00,,,0.00,VWS V14.01,2013-06-09 02:53:00,
2013-06-08 21:58:00,71.3,60.2,29.95,South,169,0.0,4.0,68,0.00,,,0.00,VWS V14.01,2013-06-09 02:58:00,
2013-06-08 22:00:00,71.3,60.2,29.95,South,169,0.0,4.0,68,0.00,,,0.00,VWS V14.01,2013-06-09 03:00:00,
2013-06-08 22:03:00,71.4,60.3,29.95,South,182,0.0,2.0,68,0.00,,,0.00,VWS V14.01,2013-06-09 03:03:00,
2013-06-08 22:08:00,71.2,60.5,29.95,SE,136,0.0,2.0,69,0.00,,,0.00,VWS V14.01,2013-06-09 03:08:00,
2013-06-08 22:13:00,71.1,60.4,29.95,SE,131,1.5,2.0,69,0.00,,,0.00,VWS V14.01,2013-06-09 03:13:00,
2013-06-08 22:18:00,71.0,60.7,29.95,SSE,156,0.0,2.0,70,0.00,,,0.00,VWS V14.01,2013-06-09 03:18:00,
2013-06-08 22:23:00,70.8,60.5,29.95,SSE,156,1.5,2.0,70,0.00,,,0.00,VWS V14.01,2013-06-09 03:23:00,
2013-06-08 22:28:00,70.8,60.5,29.95,SSE,163,1.5,2.0,70,0.00,,,0.00,VWS V14.01,2013-06-09 03:28:00,
2013-06-08 22:33:00,70.6,60.3,29.95,South,174,0.0,2.0,70,0.00,,,0.00,VWS V14.01,2013-06-09 03:33:00,
2013-06-08 22:38:00,70.5,60.7,29.95,South,177,0.0,4.0,71,0.00,,,0.00,VWS V14.01,2013-06-09 03:38:00,
2013-06-08 22:43:00,70.5,60.7,29.95,SSE,152,0.0,4.0,71,0.00,,,0.00,VWS V14.01,2013-06-09 03:43:00,
2013-06-08 22:48:00,70.5,60.3,29.94,SE,138,0.0,4.0,70,0.00,,,0.00,VWS V14.01,2013-06-09 03:48:00,
2013-06-08 22:53:00,70.6,60.3,29.94,SSW,198,3.0,5.0,70,0.00,,,0.00,VWS V14.01,2013-06-09 03:53:00,
2013-06-08 22:58:00,70.6,60.3,29.94,SE,145,3.0,6.0,70,0.00,,,0.00,VWS V14.01,2013-06-09 03:58:00,
2013-06-08 23:00:00,71.3,60.2,29.95,South,169,0.0,4.0,68,0.00,,,0.00,VWS V15.00,2013-06-09 04:00:00,
2013-06-08 23:01:00,70.6,60.3,29.94,South,173,3.0,6.0,70,0.00,,,0.00,VWS V14.01,2013-06-09 04:01:00,
2013-06-08 23:06:00,70.7,60.0,29.94,South,191,0.0,6.0,69,0.00,,,0.00,VWS V14.01,2013-06-09 04:06:00,
2013-06-08 23:11:00,70.8,60.1,29.94,South,184,1.5,6.0,69,0.00,,,0.00,VWS V14.01,2013-06-09 04:11:00,
2013-06-08 23:16:00,70.9,59.8,29.94,SSE,165,0.0,6.0,68,0.00,,,0.00,VWS V14.01,2013-06-09 04:16:00,
2013-06-08 23:21:00,70.9,59.8,29.94,SSE,156,9.0,9.0,68,0.00,,,0.00,VWS V14.01,2013-06-09 04:21:00,
2013-06-08 23:26:00,70.8,60.1,29.94,South,176,4.5,6.0,69,0.00,,,0.00,VWS V14.01,2013-06-09 04:26:00,
2013-06-08 23:31:00,70.7,59.6,29.94,SSE,167,1.5,6.0,68,0.00,,,0.00,VWS V14.01,2013-06-09 04:31:00,
2013-06-08 23:36:00,70.6,60.0,29.94,South,188,1.5,6.0,69,0.00,,,0.00,VWS V14.01,2013-06-09 04:36:00,
2013-06-08 23:41:00,70.5,59.8,29.94,SSE,165,1.5,6.0,69,0.00,,,0.00,VWS V14.01,2013-06-09 04:41:00,
2013-06-08 23:46:00,70.5,59.8,29.94,SSW,205,1.5,6.0,69,0.00,,,0.00,VWS V14.01,2013-06-09 04:46:00,
2013-06-08 23:51:00,70.4,59.8,29.95,SSE,157,1.5,6.0,69,0.00,,,0.00,VWS V14.01,2013-06-09 04:51:00,
2013-06-08 23:56:00,70.3,59.7,29.96,SSE,158,0.0,6.0,69,0.00,,,0.00,VWS V14.01,2013-06-09 04:56:00,